Year,Month,Day,Hour,Minute,Value (Times are PST for windgust in km/hr)
2020,08,06,00,00,6.40
2020,08,06,00,01,4.80
2020,08,06,00,02,6.40
2020,08,06,00,03,4.80
2020,08,06,00,04,3.20
2020,08,06,00,05,4.80
2020,08,06,00,06,4.80
2020,08,06,00,07,3.20
2020,08,06,00,08,3.20
2020,08,06,00,09,3.20
2020,08,06,00,12,1.60
2020,08,06,00,14,1.60
2020,08,06,00,15,3.20
2020,08,06,00,16,3.20
2020,08,06,00,17,3.20
2020,08,06,00,18,1.60
2020,08,06,00,19,1.60
2020,08,06,00,20,1.60
2020,08,06,00,21,3.20
2020,08,06,00,22,1.60
2020,08,06,00,23,3.20
2020,08,06,00,24,1.60
2020,08,06,00,25,1.60
2020,08,06,00,28,1.60
2020,08,06,00,29,1.60
2020,08,06,00,33,1.60
2020,08,06,00,34,4.80
2020,08,06,00,35,6.40
2020,08,06,00,36,4.80
2020,08,06,00,37,1.60
2020,08,06,00,38,3.20
2020,08,06,00,39,3.20
2020,08,06,00,40,1.60
2020,08,06,00,41,1.60
2020,08,06,00,42,1.60
2020,08,06,00,43,1.60
2020,08,06,00,44,1.60
2020,08,06,00,45,1.60
2020,08,06,00,46,3.20
2020,08,06,00,47,1.60
2020,08,06,00,48,1.60
2020,08,06,00,51,1.60
2020,08,06,00,52,1.60
2020,08,06,00,53,1.60
2020,08,06,00,54,3.20
2020,08,06,00,55,1.60
2020,08,06,00,57,1.60
2020,08,06,00,58,1.60
2020,08,06,00,59,1.60
2020,08,06,01,00,3.20
2020,08,06,01,01,1.60
2020,08,06,01,02,1.60
2020,08,06,01,03,1.60
2020,08,06,01,04,1.60
2020,08,06,01,05,1.60
2020,08,06,01,06,4.80
2020,08,06,01,07,4.80
2020,08,06,01,08,6.40
2020,08,06,01,09,4.80
2020,08,06,01,10,3.20
2020,08,06,01,11,1.60
2020,08,06,01,12,3.20
2020,08,06,01,13,3.20
2020,08,06,01,14,3.20
2020,08,06,01,15,3.20
2020,08,06,01,16,3.20
2020,08,06,01,17,1.60
2020,08,06,01,18,1.60
2020,08,06,01,19,1.60
2020,08,06,01,20,1.60
2020,08,06,01,21,1.60
2020,08,06,01,22,1.60
2020,08,06,01,24,4.80
2020,08,06,01,25,4.80
2020,08,06,01,26,4.80
2020,08,06,01,27,6.40
2020,08,06,01,28,6.40
2020,08,06,01,29,8.10
2020,08,06,01,30,6.40
2020,08,06,01,31,9.60
2020,08,06,01,32,8.10
2020,08,06,01,33,4.80
2020,08,06,01,34,8.10
2020,08,06,01,35,6.40
2020,08,06,01,36,6.40
2020,08,06,01,37,6.40
2020,08,06,01,38,6.40
2020,08,06,01,39,6.40
2020,08,06,01,40,3.20
2020,08,06,01,41,3.20
2020,08,06,01,42,6.40
2020,08,06,01,43,6.40
2020,08,06,01,44,6.40
2020,08,06,01,45,4.80
2020,08,06,01,46,3.20
2020,08,06,01,47,9.60
2020,08,06,01,48,11.30
2020,08,06,01,49,6.40
2020,08,06,01,50,8.10
2020,08,06,01,51,11.30
2020,08,06,01,52,6.40
2020,08,06,01,53,4.80
2020,08,06,01,54,11.30
2020,08,06,01,55,9.60
2020,08,06,01,56,8.10
2020,08,06,01,57,9.60
2020,08,06,01,58,9.60
2020,08,06,01,59,9.60
2020,08,06,02,00,8.10
2020,08,06,02,01,12.90
2020,08,06,02,02,11.30
2020,08,06,02,03,11.30
2020,08,06,02,04,11.30
2020,08,06,02,05,8.10
2020,08,06,02,06,6.40
2020,08,06,02,07,11.30
2020,08,06,02,08,14.50
2020,08,06,02,09,11.30
2020,08,06,02,10,16.10
2020,08,06,02,11,17.70
2020,08,06,02,12,19.30
2020,08,06,02,13,16.10
2020,08,06,02,14,16.10
2020,08,06,02,15,19.30
2020,08,06,02,16,14.50
2020,08,06,02,17,14.50
2020,08,06,02,18,16.10
2020,08,06,02,19,17.70
2020,08,06,02,20,16.10
2020,08,06,02,21,16.10
2020,08,06,02,22,14.50
2020,08,06,02,23,12.90
2020,08,06,02,24,17.70
2020,08,06,02,25,22.50
2020,08,06,02,26,17.70
2020,08,06,02,27,11.30
2020,08,06,02,28,17.70
2020,08,06,02,29,22.50
2020,08,06,02,30,22.50
2020,08,06,02,31,14.50
2020,08,06,02,32,14.50
2020,08,06,02,33,16.10
2020,08,06,02,34,9.60
2020,08,06,02,35,14.50
2020,08,06,02,36,20.90
2020,08,06,02,37,20.90
2020,08,06,02,38,16.10
2020,08,06,02,39,19.30
2020,08,06,02,40,20.90
2020,08,06,02,41,14.50
2020,08,06,02,42,17.70
2020,08,06,02,43,19.30
2020,08,06,02,44,12.90
2020,08,06,02,45,12.90
2020,08,06,02,46,17.70
2020,08,06,02,47,14.50
2020,08,06,02,48,14.50
2020,08,06,02,49,17.70
2020,08,06,02,50,16.10
2020,08,06,02,51,14.50
2020,08,06,02,52,14.50
2020,08,06,02,53,9.60
2020,08,06,02,54,11.30
2020,08,06,02,55,14.50
2020,08,06,02,56,14.50
2020,08,06,02,57,12.90
2020,08,06,02,58,14.50
2020,08,06,02,59,8.10
2020,08,06,03,00,11.30
2020,08,06,03,01,3.20
2020,08,06,03,02,9.60
2020,08,06,03,03,6.40
2020,08,06,03,04,3.20
2020,08,06,03,05,4.80
2020,08,06,03,06,14.50
2020,08,06,03,07,11.30
2020,08,06,03,08,8.10
2020,08,06,03,09,14.50
2020,08,06,03,10,12.90
2020,08,06,03,11,4.80
2020,08,06,03,12,8.10
2020,08,06,03,13,12.90
2020,08,06,03,14,12.90
2020,08,06,03,15,6.40
2020,08,06,03,16,6.40
2020,08,06,03,17,4.80
2020,08,06,03,18,6.40
2020,08,06,03,19,6.40
2020,08,06,03,20,4.80
2020,08,06,03,21,8.10
2020,08,06,03,22,4.80
2020,08,06,03,23,6.40
2020,08,06,03,24,9.60
2020,08,06,03,25,6.40
2020,08,06,03,26,11.30
2020,08,06,03,27,8.10
2020,08,06,03,28,12.90
2020,08,06,03,29,19.30
2020,08,06,03,30,16.10
2020,08,06,03,31,16.10
2020,08,06,03,32,12.90
2020,08,06,03,33,9.60
2020,08,06,03,34,11.30
2020,08,06,03,35,12.90
2020,08,06,03,36,12.90
2020,08,06,03,37,14.50
2020,08,06,03,38,17.70
2020,08,06,03,39,17.70
2020,08,06,03,40,12.90
2020,08,06,03,41,11.30
2020,08,06,03,42,11.30
2020,08,06,03,43,11.30
2020,08,06,03,44,11.30
2020,08,06,03,45,8.10
2020,08,06,03,46,8.10
2020,08,06,03,47,9.60
2020,08,06,03,48,12.90
2020,08,06,03,49,11.30
2020,08,06,03,50,16.10
2020,08,06,03,51,8.10
2020,08,06,03,52,6.40
2020,08,06,03,53,6.40
2020,08,06,03,54,14.50
2020,08,06,03,55,11.30
2020,08,06,03,56,12.90
2020,08,06,03,57,9.60
2020,08,06,03,58,6.40
2020,08,06,03,59,9.60
2020,08,06,04,00,14.50
2020,08,06,04,01,8.10
2020,08,06,04,02,6.40
2020,08,06,04,03,6.40
2020,08,06,04,04,8.10
2020,08,06,04,08,6.40
2020,08,06,04,09,9.60
2020,08,06,04,10,9.60
2020,08,06,04,11,12.90
2020,08,06,04,12,11.30
2020,08,06,04,13,11.30
2020,08,06,04,14,4.80
2020,08,06,04,15,8.10
2020,08,06,04,16,6.40
2020,08,06,04,17,11.30
2020,08,06,04,18,9.60
2020,08,06,04,19,9.60
2020,08,06,04,20,9.60
2020,08,06,04,21,9.60
2020,08,06,04,22,6.40
2020,08,06,04,23,9.60
2020,08,06,04,24,11.30
2020,08,06,04,25,9.60
2020,08,06,04,26,14.50
2020,08,06,04,27,9.60
2020,08,06,04,28,12.90
2020,08,06,04,29,14.50
2020,08,06,04,30,14.50
2020,08,06,04,31,12.90
2020,08,06,04,32,8.10
2020,08,06,04,33,8.10
2020,08,06,04,34,9.60
2020,08,06,04,35,6.40
2020,08,06,04,36,8.10
2020,08,06,04,37,9.60
2020,08,06,04,38,9.60
2020,08,06,04,39,11.30
2020,08,06,04,40,11.30
2020,08,06,04,41,6.40
2020,08,06,04,42,8.10
2020,08,06,04,43,11.30
2020,08,06,04,44,9.60
2020,08,06,04,45,4.80
2020,08,06,04,46,6.40
2020,08,06,04,47,6.40
2020,08,06,04,48,8.10
2020,08,06,04,49,6.40
2020,08,06,04,50,4.80
2020,08,06,04,51,8.10
2020,08,06,04,52,9.60
2020,08,06,04,53,4.80
2020,08,06,04,54,3.20
2020,08,06,04,55,8.10
2020,08,06,04,56,6.40
2020,08,06,04,57,3.20
2020,08,06,04,58,4.80
2020,08,06,04,59,4.80
2020,08,06,05,00,4.80
2020,08,06,05,01,6.40
2020,08,06,05,02,8.10
2020,08,06,05,03,8.10
2020,08,06,05,04,12.90
2020,08,06,05,05,8.10
2020,08,06,05,06,9.60
2020,08,06,05,07,8.10
2020,08,06,05,08,6.40
2020,08,06,05,09,6.40
2020,08,06,05,10,11.30
2020,08,06,05,11,11.30
2020,08,06,05,12,9.60
2020,08,06,05,13,9.60
2020,08,06,05,14,8.10
2020,08,06,05,15,8.10
2020,08,06,05,16,11.30
2020,08,06,05,17,11.30
2020,08,06,05,18,8.10
2020,08,06,05,19,9.60
2020,08,06,05,20,8.10
2020,08,06,05,21,8.10
2020,08,06,05,22,6.40
2020,08,06,05,23,11.30
2020,08,06,05,24,8.10
2020,08,06,05,25,9.60
2020,08,06,05,26,8.10
2020,08,06,05,27,8.10
2020,08,06,05,28,11.30
2020,08,06,05,29,8.10
2020,08,06,05,30,8.10
2020,08,06,05,31,9.60
2020,08,06,05,32,11.30
2020,08,06,05,33,8.10
2020,08,06,05,34,6.40
2020,08,06,05,35,8.10
2020,08,06,05,36,8.10
2020,08,06,05,37,8.10
2020,08,06,05,38,6.40
2020,08,06,05,39,9.60
2020,08,06,05,40,9.60
2020,08,06,05,41,11.30
2020,08,06,05,42,12.90
2020,08,06,05,43,9.60
2020,08,06,05,44,8.10
2020,08,06,05,45,4.80
2020,08,06,05,46,3.20
2020,08,06,05,47,8.10
2020,08,06,05,48,8.10
2020,08,06,05,49,9.60
2020,08,06,05,50,1.60
2020,08,06,05,51,3.20
2020,08,06,05,52,8.10
2020,08,06,05,53,6.40
2020,08,06,05,54,1.60
2020,08,06,05,55,8.10
2020,08,06,05,56,9.60
2020,08,06,05,57,11.30
2020,08,06,05,58,9.60
2020,08,06,05,59,8.10
2020,08,06,06,00,12.90
2020,08,06,06,01,16.10
2020,08,06,06,02,16.10
2020,08,06,06,03,9.60
2020,08,06,06,04,12.90
2020,08,06,06,05,11.30
2020,08,06,06,06,11.30
2020,08,06,06,07,14.50
2020,08,06,06,08,14.50
2020,08,06,06,09,16.10
2020,08,06,06,10,14.50
2020,08,06,06,11,17.70
2020,08,06,06,12,14.50
2020,08,06,06,13,12.90
2020,08,06,06,14,12.90
2020,08,06,06,15,8.10
2020,08,06,06,16,9.60
2020,08,06,06,17,6.40
2020,08,06,06,18,9.60
2020,08,06,06,19,8.10
2020,08,06,06,20,8.10
2020,08,06,06,21,9.60
2020,08,06,06,22,8.10
2020,08,06,06,23,3.20
2020,08,06,06,24,8.10
2020,08,06,06,25,9.60
2020,08,06,06,26,9.60
2020,08,06,06,27,11.30
2020,08,06,06,28,9.60
2020,08,06,06,29,11.30
2020,08,06,06,30,4.80
2020,08,06,06,31,19.30
2020,08,06,06,32,19.30
2020,08,06,06,33,12.90
2020,08,06,06,34,14.50
2020,08,06,06,35,19.30
2020,08,06,06,36,11.30
2020,08,06,06,37,9.60
2020,08,06,06,38,12.90
2020,08,06,06,39,14.50
2020,08,06,06,40,11.30
2020,08,06,06,41,11.30
2020,08,06,06,42,8.10
2020,08,06,06,43,11.30
2020,08,06,06,44,8.10
2020,08,06,06,45,9.60
2020,08,06,06,46,11.30
2020,08,06,06,47,12.90
2020,08,06,06,48,9.60
2020,08,06,06,49,11.30
2020,08,06,06,50,12.90
2020,08,06,06,51,8.10
2020,08,06,06,52,4.80
2020,08,06,06,53,9.60
2020,08,06,06,54,8.10
2020,08,06,06,55,9.60
2020,08,06,06,56,4.80
2020,08,06,06,57,3.20
2020,08,06,06,58,4.80
2020,08,06,06,59,4.80
2020,08,06,07,00,6.40
2020,08,06,07,01,3.20
2020,08,06,07,02,12.90
2020,08,06,07,03,9.60
2020,08,06,07,04,11.30
2020,08,06,07,05,16.10
2020,08,06,07,06,12.90
2020,08,06,07,07,12.90
2020,08,06,07,08,14.50
2020,08,06,07,09,17.70
2020,08,06,07,10,16.10
2020,08,06,07,11,16.10
2020,08,06,07,12,12.90
2020,08,06,07,13,12.90
2020,08,06,07,14,12.90
2020,08,06,07,15,17.70
2020,08,06,07,16,19.30
2020,08,06,07,17,12.90
2020,08,06,07,18,11.30
2020,08,06,07,19,16.10
2020,08,06,07,20,14.50
2020,08,06,07,21,9.60
2020,08,06,07,22,12.90
2020,08,06,07,23,11.30
2020,08,06,07,24,11.30
2020,08,06,07,25,8.10
2020,08,06,07,26,12.90
2020,08,06,07,27,14.50
2020,08,06,07,28,11.30
2020,08,06,07,29,12.90
2020,08,06,07,30,16.10
2020,08,06,07,31,16.10
2020,08,06,07,32,17.70
2020,08,06,07,33,11.30
2020,08,06,07,34,9.60
2020,08,06,07,35,3.20
2020,08,06,07,36,6.40
2020,08,06,07,37,3.20
2020,08,06,07,38,1.60
2020,08,06,07,39,4.80
2020,08,06,07,40,4.80
2020,08,06,07,41,3.20
2020,08,06,07,42,1.60
2020,08,06,07,43,6.40
2020,08,06,07,44,8.10
2020,08,06,07,45,1.60
2020,08,06,07,46,6.40
2020,08,06,07,47,4.80
2020,08,06,07,48,4.80
2020,08,06,07,49,4.80
2020,08,06,07,50,6.40
2020,08,06,07,51,4.80
2020,08,06,07,52,6.40
2020,08,06,07,53,8.10
2020,08,06,07,54,8.10
2020,08,06,07,55,3.20
2020,08,06,07,56,4.80
2020,08,06,07,57,8.10
2020,08,06,07,58,6.40
2020,08,06,07,59,4.80
2020,08,06,08,00,3.20
2020,08,06,08,01,3.20
2020,08,06,08,02,3.20
2020,08,06,08,03,1.60
2020,08,06,08,04,1.60
2020,08,06,08,05,6.40
2020,08,06,08,06,4.80
2020,08,06,08,07,8.10
2020,08,06,08,08,6.40
2020,08,06,08,09,6.40
2020,08,06,08,10,6.40
2020,08,06,08,11,4.80
2020,08,06,08,12,6.40
2020,08,06,08,13,8.10
2020,08,06,08,14,4.80
2020,08,06,08,15,11.30
2020,08,06,08,16,3.20
2020,08,06,08,17,6.40
2020,08,06,08,18,8.10
2020,08,06,08,19,9.60
2020,08,06,08,20,9.60
2020,08,06,08,21,9.60
2020,08,06,08,22,6.40
2020,08,06,08,23,9.60
2020,08,06,08,24,6.40
2020,08,06,08,25,9.60
2020,08,06,08,26,14.50
2020,08,06,08,27,12.90
2020,08,06,08,28,16.10
2020,08,06,08,29,11.30
2020,08,06,08,30,9.60
2020,08,06,08,31,11.30
2020,08,06,08,32,11.30
2020,08,06,08,33,8.10
2020,08,06,08,34,11.30
2020,08,06,08,35,8.10
2020,08,06,08,36,6.40
2020,08,06,08,37,12.90
2020,08,06,08,38,11.30
2020,08,06,08,39,11.30
2020,08,06,08,40,9.60
2020,08,06,08,41,9.60
2020,08,06,08,42,8.10
2020,08,06,08,43,9.60
2020,08,06,08,44,9.60
2020,08,06,08,45,8.10
2020,08,06,08,46,9.60
2020,08,06,08,47,12.90
2020,08,06,08,48,16.10
2020,08,06,08,49,12.90
2020,08,06,08,50,14.50
2020,08,06,08,51,12.90
2020,08,06,08,52,11.30
2020,08,06,08,53,12.90
2020,08,06,08,54,16.10
2020,08,06,08,55,17.70
2020,08,06,08,56,17.70
2020,08,06,08,57,14.50
2020,08,06,08,58,16.10
2020,08,06,08,59,11.30
2020,08,06,09,00,11.30
2020,08,06,09,01,12.90
2020,08,06,09,02,12.90
2020,08,06,09,03,14.50
2020,08,06,09,04,14.50
2020,08,06,09,05,12.90
2020,08,06,09,06,11.30
2020,08,06,09,07,11.30
2020,08,06,09,08,6.40
2020,08,06,09,09,6.40
2020,08,06,09,10,9.60
2020,08,06,09,11,3.20
2020,08,06,09,12,8.10
2020,08,06,09,13,14.50
2020,08,06,09,14,6.40
2020,08,06,09,15,6.40
2020,08,06,09,16,6.40
2020,08,06,09,17,8.10
2020,08,06,09,18,3.20
2020,08,06,09,19,4.80
2020,08,06,09,20,3.20
2020,08,06,09,21,4.80
2020,08,06,09,22,4.80
2020,08,06,09,23,6.40
2020,08,06,09,24,3.20
2020,08,06,09,25,6.40
2020,08,06,09,26,8.10
2020,08,06,09,27,6.40
2020,08,06,09,28,8.10
2020,08,06,09,29,4.80
2020,08,06,09,30,4.80
2020,08,06,09,31,8.10
2020,08,06,09,32,6.40
2020,08,06,09,33,6.40
2020,08,06,09,34,6.40
2020,08,06,09,35,11.30
2020,08,06,09,36,9.60
2020,08,06,09,37,12.90
2020,08,06,09,38,6.40
2020,08,06,09,39,9.60
2020,08,06,09,40,12.90
2020,08,06,09,41,12.90
2020,08,06,09,42,8.10
2020,08,06,09,43,8.10
2020,08,06,09,44,12.90
2020,08,06,09,45,3.20
2020,08,06,09,46,4.80
2020,08,06,09,47,8.10
2020,08,06,09,48,6.40
2020,08,06,09,49,9.60
2020,08,06,09,50,8.10
2020,08,06,09,51,12.90
2020,08,06,09,52,11.30
2020,08,06,09,53,6.40
2020,08,06,09,54,9.60
2020,08,06,09,55,11.30
2020,08,06,09,56,17.70
2020,08,06,09,57,3.20
2020,08,06,09,58,11.30
2020,08,06,09,59,9.60
2020,08,06,10,00,6.40
2020,08,06,10,01,12.90
2020,08,06,10,02,14.50
2020,08,06,10,03,19.30
2020,08,06,10,04,8.10
2020,08,06,10,05,4.80
2020,08,06,10,06,14.50
2020,08,06,10,07,8.10
2020,08,06,10,08,8.10
2020,08,06,10,09,8.10
2020,08,06,10,10,19.30
2020,08,06,10,11,16.10
2020,08,06,10,12,12.90
2020,08,06,10,13,19.30
2020,08,06,10,14,11.30
2020,08,06,10,15,8.10
2020,08,06,10,16,6.40
2020,08,06,10,17,11.30
2020,08,06,10,18,8.10
2020,08,06,10,19,12.90
2020,08,06,10,20,6.40
2020,08,06,10,21,16.10
2020,08,06,10,22,9.60
2020,08,06,10,23,9.60
2020,08,06,10,24,9.60
2020,08,06,10,25,19.30
2020,08,06,10,26,11.30
2020,08,06,10,27,12.90
2020,08,06,10,28,20.90
2020,08,06,10,29,27.40
2020,08,06,10,30,11.30
2020,08,06,10,31,12.90
2020,08,06,10,32,11.30
2020,08,06,10,33,11.30
2020,08,06,10,34,16.10
2020,08,06,10,35,32.20
2020,08,06,10,36,11.30
2020,08,06,10,37,20.90
2020,08,06,10,38,12.90
2020,08,06,10,39,14.50
2020,08,06,10,40,12.90
2020,08,06,10,41,16.10
2020,08,06,10,42,8.10
2020,08,06,10,43,12.90
2020,08,06,10,44,14.50
2020,08,06,10,45,19.30
2020,08,06,10,46,14.50
2020,08,06,10,47,11.30
2020,08,06,10,48,19.30
2020,08,06,10,49,11.30
2020,08,06,10,50,8.10
2020,08,06,10,51,14.50
2020,08,06,10,52,9.60
2020,08,06,10,53,17.70
2020,08,06,10,54,17.70
2020,08,06,10,55,24.20
2020,08,06,10,56,14.50
2020,08,06,10,57,17.70
2020,08,06,10,58,16.10
2020,08,06,10,59,11.30
2020,08,06,11,00,14.50
2020,08,06,11,01,1.60
2020,08,06,11,02,11.30
2020,08,06,11,03,9.60
2020,08,06,11,04,9.60
2020,08,06,11,05,16.10
2020,08,06,11,06,11.30
2020,08,06,11,07,11.30
2020,08,06,11,08,11.30
2020,08,06,11,09,6.40
2020,08,06,11,10,8.10
2020,08,06,11,11,9.60
2020,08,06,11,12,14.50
2020,08,06,11,13,16.10
2020,08,06,11,14,9.60
2020,08,06,11,15,8.10
2020,08,06,11,16,6.40
2020,08,06,11,17,17.70
2020,08,06,11,18,17.70
2020,08,06,11,19,14.50
2020,08,06,11,20,12.90
2020,08,06,11,21,12.90
2020,08,06,11,22,12.90
2020,08,06,11,23,3.20
2020,08,06,11,24,11.30
2020,08,06,11,25,20.90
2020,08,06,11,26,20.90
2020,08,06,11,27,17.70
2020,08,06,11,28,9.60
2020,08,06,11,29,14.50
2020,08,06,11,30,8.10
2020,08,06,11,31,16.10
2020,08,06,11,32,14.50
2020,08,06,11,33,24.20
2020,08,06,11,34,11.30
2020,08,06,11,35,8.10
2020,08,06,11,36,9.60
2020,08,06,11,37,19.30
2020,08,06,11,38,14.50
2020,08,06,11,39,9.60
2020,08,06,11,40,11.30
2020,08,06,11,41,12.90
2020,08,06,11,42,19.30
2020,08,06,11,43,14.50
2020,08,06,11,44,22.50
2020,08,06,11,45,12.90
2020,08,06,11,46,17.70
2020,08,06,11,47,12.90
2020,08,06,11,48,9.60
2020,08,06,11,49,16.10
2020,08,06,11,50,8.10
2020,08,06,11,51,11.30
2020,08,06,11,52,14.50
2020,08,06,11,53,8.10
2020,08,06,11,54,9.60
2020,08,06,11,55,8.10
2020,08,06,11,56,17.70
2020,08,06,11,57,20.90
2020,08,06,11,58,12.90
2020,08,06,11,59,12.90
2020,08,06,12,00,6.40
2020,08,06,12,01,25.70
2020,08,06,12,02,19.30
2020,08,06,12,03,9.60
2020,08,06,12,04,12.90
2020,08,06,12,05,9.60
2020,08,06,12,06,14.50
2020,08,06,12,07,6.40
2020,08,06,12,08,8.10
2020,08,06,12,09,11.30
2020,08,06,12,10,9.60
2020,08,06,12,11,11.30
2020,08,06,12,12,12.90
2020,08,06,12,13,6.40
2020,08,06,12,14,11.30
2020,08,06,12,15,11.30
2020,08,06,12,16,8.10
2020,08,06,12,17,17.70
2020,08,06,12,18,9.60
2020,08,06,12,19,11.30
2020,08,06,12,20,11.30
2020,08,06,12,21,9.60
2020,08,06,12,22,14.50
2020,08,06,12,23,11.30
2020,08,06,12,24,9.60
2020,08,06,12,25,17.70
2020,08,06,12,26,17.70
2020,08,06,12,27,11.30
2020,08,06,12,28,14.50
2020,08,06,12,29,14.50
2020,08,06,12,30,9.60
2020,08,06,12,31,11.30
2020,08,06,12,32,11.30
2020,08,06,12,33,9.60
2020,08,06,12,34,19.30
2020,08,06,12,35,19.30
2020,08,06,12,36,11.30
2020,08,06,12,37,16.10
2020,08,06,12,38,8.10
2020,08,06,12,39,8.10
2020,08,06,12,40,16.10
2020,08,06,12,41,19.30
2020,08,06,12,42,12.90
2020,08,06,12,43,11.30
2020,08,06,12,44,8.10
2020,08,06,12,45,25.70
2020,08,06,12,46,12.90
2020,08,06,12,47,11.30
2020,08,06,12,48,9.60
2020,08,06,12,49,20.90
2020,08,06,12,50,20.90
2020,08,06,12,51,24.20
2020,08,06,12,52,20.90
2020,08,06,12,53,17.70
2020,08,06,12,54,6.40
2020,08,06,12,55,9.60
2020,08,06,12,56,8.10
2020,08,06,12,57,4.80
2020,08,06,12,58,6.40
2020,08,06,12,59,19.30
2020,08,06,13,00,14.50
2020,08,06,13,01,14.50
2020,08,06,13,02,8.10
2020,08,06,13,03,16.10
2020,08,06,13,04,14.50
2020,08,06,13,05,11.30
2020,08,06,13,06,9.60
2020,08,06,13,07,14.50
2020,08,06,13,08,3.20
2020,08,06,13,09,16.10
2020,08,06,13,10,12.90
2020,08,06,13,11,14.50
2020,08,06,13,12,20.90
2020,08,06,13,13,20.90
2020,08,06,13,14,25.70
2020,08,06,13,15,14.50
2020,08,06,13,16,22.50
2020,08,06,13,17,12.90
2020,08,06,13,18,24.20
2020,08,06,13,19,22.50
2020,08,06,13,20,12.90
2020,08,06,13,21,4.80
2020,08,06,13,22,8.10
2020,08,06,13,23,14.50
2020,08,06,13,24,24.20
2020,08,06,13,25,17.70
2020,08,06,13,26,11.30
2020,08,06,13,27,12.90
2020,08,06,13,28,6.40
2020,08,06,13,29,6.40
2020,08,06,13,30,9.60
2020,08,06,13,31,12.90
2020,08,06,13,32,14.50
2020,08,06,13,33,3.20
2020,08,06,13,34,6.40
2020,08,06,13,35,6.40
2020,08,06,13,36,12.90
2020,08,06,13,37,11.30
2020,08,06,13,38,11.30
2020,08,06,13,39,12.90
2020,08,06,13,40,14.50
2020,08,06,13,41,11.30
2020,08,06,13,42,12.90
2020,08,06,13,43,9.60
2020,08,06,13,44,11.30
2020,08,06,13,45,8.10
2020,08,06,13,46,12.90
2020,08,06,13,47,8.10
2020,08,06,13,48,22.50
2020,08,06,13,49,19.30
2020,08,06,13,50,20.90
2020,08,06,13,51,17.70
2020,08,06,13,52,12.90
2020,08,06,13,53,11.30
2020,08,06,13,54,22.50
2020,08,06,13,55,19.30
2020,08,06,13,56,14.50
2020,08,06,13,57,12.90
2020,08,06,13,58,12.90
2020,08,06,13,59,16.10
2020,08,06,14,00,9.60
2020,08,06,14,01,11.30
2020,08,06,14,02,6.40
2020,08,06,14,03,11.30
2020,08,06,14,04,12.90
2020,08,06,14,05,11.30
2020,08,06,14,06,9.60
2020,08,06,14,07,9.60
2020,08,06,14,08,6.40
2020,08,06,14,09,16.10
2020,08,06,14,10,14.50
2020,08,06,14,11,14.50
2020,08,06,14,12,4.80
2020,08,06,14,13,11.30
2020,08,06,14,14,12.90
2020,08,06,14,15,14.50
2020,08,06,14,16,22.50
2020,08,06,14,17,27.40
2020,08,06,14,18,19.30
2020,08,06,14,19,16.10
2020,08,06,14,20,25.70
2020,08,06,14,21,9.60
2020,08,06,14,22,22.50
2020,08,06,14,23,14.50
2020,08,06,14,24,8.10
2020,08,06,14,25,20.90
2020,08,06,14,26,19.30
2020,08,06,14,27,22.50
2020,08,06,14,28,19.30
2020,08,06,14,29,19.30
2020,08,06,14,30,17.70
2020,08,06,14,31,17.70
2020,08,06,14,32,12.90
2020,08,06,14,33,11.30
2020,08,06,14,34,17.70
2020,08,06,14,35,25.70
2020,08,06,14,36,20.90
2020,08,06,14,37,37.00
2020,08,06,14,38,17.70
2020,08,06,14,39,14.50
2020,08,06,14,40,14.50
2020,08,06,14,41,19.30
2020,08,06,14,42,20.90
2020,08,06,14,43,20.90
2020,08,06,14,44,11.30
2020,08,06,14,45,11.30
2020,08,06,14,46,14.50
2020,08,06,14,47,12.90
2020,08,06,14,48,11.30
2020,08,06,14,49,11.30
2020,08,06,14,50,38.60
2020,08,06,14,51,11.30
2020,08,06,14,52,12.90
2020,08,06,14,53,33.80
2020,08,06,14,54,22.50
2020,08,06,14,55,19.30
2020,08,06,14,56,22.50
2020,08,06,14,57,11.30
2020,08,06,14,58,17.70
2020,08,06,14,59,20.90
2020,08,06,15,00,19.30
2020,08,06,15,01,17.70
2020,08,06,15,02,19.30
2020,08,06,15,03,37.00
2020,08,06,15,04,20.90
2020,08,06,15,05,12.90
2020,08,06,15,06,3.20
2020,08,06,15,07,11.30
2020,08,06,15,08,19.30
2020,08,06,15,09,11.30
2020,08,06,15,10,16.10
2020,08,06,15,11,17.70
2020,08,06,15,12,12.90
2020,08,06,15,13,11.30
2020,08,06,15,14,17.70
2020,08,06,15,15,20.90
2020,08,06,15,16,19.30
2020,08,06,15,17,19.30
2020,08,06,15,18,17.70
2020,08,06,15,19,14.50
2020,08,06,15,20,25.70
2020,08,06,15,21,25.70
2020,08,06,15,22,11.30
2020,08,06,15,23,19.30
2020,08,06,15,24,12.90
2020,08,06,15,25,14.50
2020,08,06,15,26,14.50
2020,08,06,15,27,11.30
2020,08,06,15,28,11.30
2020,08,06,15,29,9.60
2020,08,06,15,30,16.10
2020,08,06,15,31,14.50
2020,08,06,15,32,22.50
2020,08,06,15,33,19.30
2020,08,06,15,34,20.90
2020,08,06,15,35,14.50
2020,08,06,15,36,19.30
2020,08,06,15,37,24.20
2020,08,06,15,38,25.70
2020,08,06,15,39,19.30
2020,08,06,15,40,14.50
2020,08,06,15,41,6.40
2020,08,06,15,42,19.30
2020,08,06,15,43,19.30
2020,08,06,15,44,16.10
2020,08,06,15,45,16.10
2020,08,06,15,46,17.70
2020,08,06,15,47,24.20
2020,08,06,15,48,20.90
2020,08,06,15,49,24.20
2020,08,06,15,50,11.30
2020,08,06,15,51,12.90
2020,08,06,15,52,16.10
2020,08,06,15,53,17.70
2020,08,06,15,54,14.50
2020,08,06,15,55,17.70
2020,08,06,15,56,12.90
2020,08,06,15,57,24.20
2020,08,06,15,58,22.50
2020,08,06,15,59,14.50
2020,08,06,16,00,27.40
2020,08,06,16,01,17.70
2020,08,06,16,02,14.50
2020,08,06,16,03,19.30
2020,08,06,16,04,4.80
2020,08,06,16,05,19.30
2020,08,06,16,06,9.60
2020,08,06,16,07,11.30
2020,08,06,16,08,3.20
2020,08,06,16,09,4.80
2020,08,06,16,10,11.30
2020,08,06,16,11,6.40
2020,08,06,16,12,9.60
2020,08,06,16,13,12.90
2020,08,06,16,14,16.10
2020,08,06,16,15,11.30
2020,08,06,16,16,16.10
2020,08,06,16,17,27.40
2020,08,06,16,18,4.80
2020,08,06,16,19,4.80
2020,08,06,16,20,9.60
2020,08,06,16,21,16.10
2020,08,06,16,22,16.10
2020,08,06,16,23,17.70
2020,08,06,16,24,12.90
2020,08,06,16,25,11.30
2020,08,06,16,26,16.10
2020,08,06,16,27,17.70
2020,08,06,16,28,17.70
2020,08,06,16,29,16.10
2020,08,06,16,30,11.30
2020,08,06,16,31,11.30
2020,08,06,16,32,19.30
2020,08,06,16,33,17.70
2020,08,06,16,34,12.90
2020,08,06,16,35,22.50
2020,08,06,16,36,14.50
2020,08,06,16,37,8.10
2020,08,06,16,38,9.60
2020,08,06,16,39,12.90
2020,08,06,16,40,8.10
2020,08,06,16,41,14.50
2020,08,06,16,42,9.60
2020,08,06,16,43,12.90
2020,08,06,16,44,11.30
2020,08,06,16,45,14.50
2020,08,06,16,46,30.60
2020,08,06,16,47,20.90
2020,08,06,16,48,17.70
2020,08,06,16,49,20.90
2020,08,06,16,50,6.40
2020,08,06,16,51,6.40
2020,08,06,16,52,6.40
2020,08,06,16,53,14.50
2020,08,06,16,54,14.50
2020,08,06,16,55,14.50
2020,08,06,16,56,11.30
2020,08,06,16,57,8.10
2020,08,06,16,58,19.30
2020,08,06,16,59,8.10
2020,08,06,17,00,17.70
2020,08,06,17,01,17.70
2020,08,06,17,02,17.70
2020,08,06,17,03,11.30
2020,08,06,17,04,16.10
2020,08,06,17,05,14.50
2020,08,06,17,06,25.70
2020,08,06,17,07,24.20
2020,08,06,17,08,16.10
2020,08,06,17,09,11.30
2020,08,06,17,10,9.60
2020,08,06,17,11,14.50
2020,08,06,17,12,11.30
2020,08,06,17,13,16.10
2020,08,06,17,14,6.40
2020,08,06,17,15,4.80
2020,08,06,17,16,6.40
2020,08,06,17,17,17.70
2020,08,06,17,18,17.70
2020,08,06,17,19,14.50
2020,08,06,17,20,12.90
2020,08,06,17,21,9.60
2020,08,06,17,22,20.90
2020,08,06,17,23,12.90
2020,08,06,17,24,9.60
2020,08,06,17,25,16.10
2020,08,06,17,26,4.80
2020,08,06,17,27,6.40
2020,08,06,17,28,6.40
2020,08,06,17,29,4.80
2020,08,06,17,30,3.20
2020,08,06,17,31,14.50
2020,08,06,17,32,11.30
2020,08,06,17,33,11.30
2020,08,06,17,34,19.30
2020,08,06,17,35,8.10
2020,08,06,17,36,4.80
2020,08,06,17,37,4.80
2020,08,06,17,38,16.10
2020,08,06,17,39,14.50
2020,08,06,17,40,9.60
2020,08,06,17,41,11.30
2020,08,06,17,42,17.70
2020,08,06,17,43,25.70
2020,08,06,17,44,22.50
2020,08,06,17,45,16.10
2020,08,06,17,46,12.90
2020,08,06,17,47,8.10
2020,08,06,17,48,12.90
2020,08,06,17,49,14.50
2020,08,06,17,50,12.90
2020,08,06,17,51,12.90
2020,08,06,17,52,9.60
2020,08,06,17,53,12.90
2020,08,06,17,54,11.30
2020,08,06,17,55,6.40